| time (UTC) | temp C | wind direction | speed KPH | gust KPH | rain 1hr cm | rain 24hr cm | rain mn cm | humidity % | barometer mb |
| 20260505183053 | 23 | 16 | 0.0 | 0.0 | 0.00 | 0.03 | 0.03 | 43 | 1003.6 |
| 20260505181502 | 23 | 36 | 0.0 | 0.0 | 0.00 | 0.03 | 0.03 | 44 | 1004.0 |
| 20260505180100 | 23 | 57 | 0.0 | 0.0 | 0.00 | 0.03 | 0.03 | 43 | 1004.4 |
| 20260505174556 | 23 | 30 | 0.0 | 0.0 | 0.00 | 0.03 | 0.03 | 43 | 1004.6 |
| 20260505173046 | 23 | 308 | 0.0 | 0.0 | 0.00 | 0.03 | 0.03 | 45 | 1004.6 |
| 20260505171538 | 23 | 246 | 0.0 | 0.0 | 0.00 | 0.03 | 0.03 | 45 | 1004.6 |
| 20260505170011 | 23 | 16 | 0.0 | 0.0 | 0.00 | 0.03 | 0.03 | 43 | 1004.8 |
| 20260505164604 | 23 | 294 | 0.0 | 0.0 | 0.00 | 0.03 | 0.03 | 46 | 1004.8 |
| 20260505163107 | 22 | 119 | 0.0 | 0.0 | 0.00 | 0.03 | 0.03 | 46 | 1005.3 |
| 20260505161542 | 21 | 47 | 0.0 | 0.0 | 0.00 | 0.03 | 0.03 | 49 | 1005.7 |
| 20260505153005 | 21 | 246 | 0.0 | 0.0 | 0.00 | 0.03 | 0.03 | 53 | 1006.3 |
| 20260505151558 | 20 | 344 | 0.0 | 0.0 | 0.00 | 0.03 | 0.03 | 54 | 1006.4 |
| 20260505150136 | 20 | 39 | 0.0 | 0.0 | 0.00 | 0.03 | 0.03 | 54 | 1006.6 |
| 20260505124532 | 15 | 37 | 0.0 | 0.0 | 0.00 | 0.03 | 0.03 | 70 | 1007.3 |
| 20260505123010 | 14 | 355 | 0.0 | 0.0 | 0.00 | 0.03 | 0.03 | 74 | 1007.3 |
| 20260505121533 | 13 | 65 | 0.0 | 0.0 | 0.00 | 0.03 | 0.03 | 74 | 1007.3 |
| 20260505120104 | 13 | 107 | 0.0 | 0.0 | 0.03 | 0.03 | 0.03 | 85 | 1007.5 |
| 20260505114527 | 11 | 154 | 0.0 | 0.0 | 0.03 | 0.03 | 0.03 | 90 | 1007.7 |
| 20260505113007 | 11 | 246 | 0.0 | 0.0 | 0.03 | 0.03 | 0.03 | 89 | 1007.6 |
| 20260505111604 | 11 | 261 | 0.0 | 0.0 | 0.03 | 0.03 | 0.03 | 85 | 1007.4 |
| 20260505101518 | 8 | 78 | 0.0 | 0.0 | 0.00 | 0.00 | 0.00 | 82 | 1007.2 |
| 20260505100139 | 9 | 78 | 0.0 | 0.0 | 0.00 | 0.00 | 0.00 | 80 | 1007.0 |
| 20260505094611 | 9 | 78 | 0.0 | 0.0 | 0.00 | 0.00 | 0.00 | 80 | 1007.1 |
| 20260505093048 | 10 | 78 | 0.0 | 0.0 | 0.00 | 0.00 | 0.00 | 79 | 1007.1 |
| 20260505091548 | 10 | 78 | 0.0 | 0.0 | 0.00 | 0.00 | 0.00 | 77 | 1006.9 |
| 20260505090138 | 10 | 78 | 0.0 | 0.0 | 0.00 | 0.00 | 0.00 | 75 | 1007.0 |
| 20260505084551 | 11 | 78 | 0.0 | 0.0 | 0.00 | 0.00 | 0.00 | 72 | 1007.3 |
| 20260505083041 | 12 | 78 | 0.0 | 0.0 | 0.00 | 0.00 | 0.00 | 67 | 1007.3 |
| 20260505081524 | 13 | 65 | 0.0 | 0.0 | 0.00 | 0.00 | 0.00 | 63 | 1007.2 |
| 20260505080107 | 13 | 66 | 0.0 | 0.0 | 0.00 | 0.00 | 0.00 | 62 | 1007.2 |
| 20260505074504 | 13 | 73 | 0.0 | 0.0 | 0.00 | 0.00 | 0.00 | 61 | 1007.1 |
| 20260505073100 | 13 | 51 | 0.0 | 0.0 | 0.00 | 0.00 | 0.00 | 60 | 1007.1 |
| 20260505071538 | 13 | 81 | 0.0 | 0.0 | 0.00 | 0.00 | 0.00 | 59 | 1007.1 |
| 20260505070018 | 13 | 282 | 0.0 | 0.0 | 0.00 | 0.00 | 0.00 | 58 | 1007.3 |
| 20260505064537 | 14 | 30 | 0.0 | 0.0 | 0.00 | 0.00 | 0.00 | 58 | 1007.3 |
| 20260505063047 | 14 | 225 | 0.0 | 0.0 | 0.00 | 0.00 | 0.00 | 57 | 1007.3 |
| 20260505061529 | 14 | 23 | 0.0 | 0.0 | 0.00 | 0.00 | 0.00 | 57 | 1007.4 |
| 20260505060050 | 14 | 261 | 0.0 | 0.0 | 0.00 | 0.00 | 0.00 | 57 | 1007.6 |
| 20260505054537 | 13 | 300 | 0.0 | 0.0 | 0.00 | 0.00 | 0.00 | 58 | 1007.8 |
| 20260505053040 | 13 | 46 | 0.0 | 0.0 | 0.00 | 0.00 | 0.00 | 60 | 1007.7 |
| 20260505051505 | 13 | 13 | 0.0 | 0.0 | 0.00 | 0.00 | 0.00 | 60 | 1007.7 |
| 20260505041551 | 13 | 17 | 0.0 | 0.0 | 0.00 | 0.00 | 0.00 | 61 | 1008.0 |
| 20260505040145 | 12 | 74 | 0.0 | 0.0 | 0.00 | 0.00 | 0.00 | 64 | 1008.0 |
| 20260505034608 | 11 | 144 | 0.0 | 0.0 | 0.00 | 0.00 | 0.00 | 70 | 1008.0 |
| 20260505033021 | 10 | 121 | 0.0 | 0.0 | 0.00 | 0.00 | 0.00 | 72 | 1007.9 |
| 20260505031523 | 10 | 57 | 0.0 | 0.0 | 0.00 | 0.00 | 0.00 | 70 | 1007.9 |
| 20260505030044 | 10 | 99 | 0.0 | 0.0 | 0.00 | 0.00 | 0.00 | 73 | 1007.9 |
| 20260505024536 | 8 | 85 | 0.0 | 0.0 | 0.00 | 0.00 | 0.00 | 75 | 1008.0 |
| 20260505023033 | 8 | 74 | 0.0 | 0.0 | 0.00 | 0.00 | 0.00 | 76 | 1008.1 |
| 20260505021539 | 9 | 69 | 0.0 | 0.0 | 0.00 | 0.00 | 0.00 | 74 | 1008.0 |
| 20260505020025 | 10 | 210 | 0.0 | 0.0 | 0.00 | 0.00 | 0.00 | 72 | 1007.9 |
| 20260505014512 | 10 | 210 | 0.0 | 0.0 | 0.00 | 0.00 | 0.00 | 70 | 1007.8 |
| 20260505013005 | 10 | 210 | 0.0 | 0.0 | 0.00 | 0.00 | 0.00 | 68 | 1007.8 |
| 20260505011551 | 11 | 237 | 0.0 | 0.0 | 0.00 | 0.00 | 0.00 | 67 | 1007.6 |
| 20260505010055 | 11 | 237 | 0.0 | 0.0 | 0.00 | 0.00 | 0.00 | 65 | 1007.6 |
| 20260505004530 | 12 | 237 | 0.0 | 0.0 | 0.00 | 0.00 | 0.00 | 66 | 1007.5 |
| 20260505003015 | 12 | 291 | 0.0 | 0.0 | 0.00 | 0.00 | 0.00 | 61 | 1007.2 |
| 20260505001633 | 13 | 315 | 0.0 | 0.0 | 0.00 | 0.00 | 0.00 | 60 | 1007.1 |
| 20260505000035 | 14 | 315 | 0.0 | 0.0 | 0.00 | 0.00 | 0.00 | 56 | 1006.9 |
| 20260504234517 | 15 | 315 | 0.0 | 0.0 | 0.00 | 0.00 | 0.00 | 52 | 1006.6 |
| 20260504233003 | 16 | 258 | 0.0 | 0.0 | 0.00 | 0.00 | 0.00 | 47 | 1006.4 |
| 20260504231507 | 16 | 277 | 0.0 | 0.0 | 0.00 | 0.00 | 0.00 | 48 | 1006.1 |
| 20260504230058 | 16 | 57 | 0.0 | 0.0 | 0.00 | 0.00 | 0.00 | 45 | 1006.0 |
| 20260504224606 | 17 | 304 | 0.0 | 0.0 | 0.00 | 0.00 | 0.00 | 47 | 1005.9 |
| 20260504223044 | 17 | 169 | 0.0 | 0.0 | 0.00 | 0.00 | 0.00 | 46 | 1005.9 |
| 20260504221555 | 18 | 161 | 0.0 | 0.0 | 0.00 | 0.00 | 0.00 | 44 | 1005.7 |
| 20260504220058 | 18 | 217 | 0.0 | 0.0 | 0.00 | 0.00 | 0.00 | 43 | 1005.8 |
| 20260504214601 | 18 | 211 | 0.0 | 0.0 | 0.00 | 0.00 | 0.00 | 44 | 1005.9 |
| 20260504213100 | 17 | 209 | 0.0 | 0.0 | 0.00 | 0.00 | 0.00 | 44 | 1006.0 |
| 20260504211508 | 17 | 325 | 0.0 | 0.0 | 0.00 | 0.00 | 0.00 | 45 | 1006.1 |
| 20260504210055 | 17 | 229 | 0.0 | 0.0 | 0.00 | 0.00 | 0.00 | 45 | 1006.1 |
| 20260504204552 | 16 | 305 | 0.0 | 0.0 | 0.00 | 0.00 | 0.00 | 46 | 1006.0 |
| 20260504203039 | 17 | 300 | 0.0 | 0.0 | 0.00 | 0.00 | 0.00 | 45 | 1006.2 |
| 20260504201531 | 17 | 233 | 0.0 | 0.0 | 0.00 | 0.00 | 0.00 | 45 | 1006.4 |
| 20260504200015 | 17 | 323 | 0.0 | 0.0 | 0.00 | 0.00 | 0.00 | 45 | 1006.4 |
| 20260504194506 | 17 | 218 | 0.0 | 0.0 | 0.00 | 0.00 | 0.00 | 44 | 1006.5 |
| 20260504193037 | 17 | 309 | 0.0 | 0.0 | 0.00 | 0.00 | 0.00 | 44 | 1006.6 |
| 20260504191506 | 17 | 225 | 0.0 | 0.0 | 0.00 | 0.00 | 0.00 | 44 | 1006.5 |
| 20260504190003 | 17 | 254 | 0.0 | 0.0 | 0.00 | 0.00 | 0.00 | 45 | 1006.7 |
| 20260504184522 | 17 | 257 | 0.0 | 0.0 | 0.00 | 0.00 | 0.00 | 44 | 1006.6 |